[[{"header":{"parameterUnit":"m.s-1","parameterCategory":1,"la1":30.2991,"la2":30.254,"lo1":-89.0895,"lo2":-89.0444,"dy":0.0017,"dx":0.0017,"nx":28,"ny":28,"refTime":"2026-01-10T03:00:00:Z","depth":0,"parameterNumber":2,"parameterNumberName":"U-component_of_WINDS"},"data":[0,0,0,0,0,0,0,0,0,0,0,0,0,0,0,0,0,0,0,0,0,0,0,0,0,0,0,0,0,0,0,0,0,0,0,0,0,0,0,0,0,0,0,0,0,0,0,0,0,0,0,0,0,0,0,0,0,0,1.7184,1.7184,0,1.7173,1.7172,1.7172,1.7147,1.7147,1.7146,1.7146,1.7132,1.7132,1.7133,0,0,0,0,0,0,0,0,0,0,0,0,0,1.7183,1.7183,1.7184,1.7184,1.7184,1.7173,1.7172,1.7172,1.7147,1.7147,1.7146,1.7146,1.7132,1.7132,1.7133,0,0,0,0,0,0,0,0,0,0,0,0,0,1.7179,1.7183,1.7184,1.717,1.7169,1.7173,1.7172,1.7172,1.7147,1.7147,1.7146,1.7145,1.7132,1.7132,1.7133,1.7149,0,0,1.7133,1.7133,0,0,0,0,0,0,0,0,1.7179,1.7179,1.7172,1.7171,1.7169,1.7161,1.7167,1.7164,1.7148,1.7155,1.7146,1.7145,1.7142,1.7142,1.7141,1.7148,1.7148,1.7133,1.7133,1.7133,1.7133,0,0,0,0,0,0,0,1.7179,1.7179,1.7179,1.7172,1.717,1.7164,1.7162,1.7167,1.7153,1.7155,1.7153,1.7152,1.7141,1.7141,1.714,1.7147,1.7133,1.7133,1.7133,1.7133,1.7168,1.7169,0,0,0,0,0,0,1.7182,1.718,1.718,1.7179,1.7173,1.7165,1.7163,1.7164,1.7153,1.7151,1.7153,1.7151,1.7141,1.714,1.714,1.7158,1.7133,1.7133,1.7134,1.7167,1.7168,1.7169,0,0,0,0,0,0,1.7182,1.7182,1.718,1.7179,1.7178,1.7165,1.7167,1.7164,1.7164,1.7152,1.7149,1.7155,1.714,1.714,1.7147,1.7158,1.7133,1.7134,1.7166,1.7168,1.7169,1.7196,0,0,0,0,0,0,1.7182,1.7182,1.7188,1.7179,1.7178,1.7188,1.7168,1.7165,1.7164,1.7162,1.7153,1.715,1.714,1.7147,1.7147,1.7157,1.7134,1.7165,1.7167,1.7169,1.7194,1.7198,1.7201,0,0,0,0,0,1.7182,1.7196,1.7189,1.7189,1.7186,1.7188,1.7188,1.7176,1.7165,1.7171,1.7164,1.7151,1.7157,1.7148,1.7148,1.7158,1.7165,1.7167,1.7168,1.7192,1.7197,1.7201,0,0,0,0,0,0,1.7205,1.7194,1.7186,1.7197,1.7194,1.7184,1.7191,1.7181,1.718,1.7178,1.7162,1.716,1.717,1.7165,1.7155,1.7174,1.7159,1.7161,1.7177,1.7181,1.7185,1.7185,1.7134,0,0,0,0,0,1.7212,1.7216,1.7206,1.7216,1.7215,1.7204,1.7204,1.7196,1.7191,1.7189,1.7182,1.7178,1.7179,1.718,1.718,1.7193,1.7191,1.7201,1.7204,1.7207,1.7209,1.7216,1.722,1.7175,1.7175,1.7175,0,0,1.7225,1.722,1.7223,1.7221,1.7217,1.7221,1.7203,1.7207,1.721,1.719,1.7197,1.7192,1.7186,1.7197,1.7201,1.7193,1.7221,1.721,1.7212,1.7212,1.7219,1.7223,1.7227,1.7177,1.7176,1.7176,0,0,1.7251,1.7248,1.7256,1.7254,1.7249,1.7242,1.7244,1.7236,1.7232,1.7239,1.7224,1.7227,1.7229,1.7226,1.7225,1.7252,1.724,1.7253,1.7271,1.7278,1.7282,1.7285,1.7294,1.7298,1.7254,1.7254,1.7254,0,1.7268,1.7274,1.7262,1.7268,1.7268,1.7252,1.726,1.7258,1.7254,1.7254,1.7245,1.7248,1.7243,1.7253,1.726,1.726,1.7262,1.7253,1.7282,1.7285,1.7288,1.7297,1.7301,1.7256,1.7256,1.7256,1.7255,0,1.7295,1.7299,1.7307,1.7304,1.7305,1.7312,1.7301,1.7304,1.7295,1.7289,1.7297,1.7291,1.729,1.7292,1.7283,1.7301,1.7296,1.7285,1.7269,1.7294,1.7302,1.7305,1.7258,1.7258,1.7257,1.7257,0,0,1.7333,1.7325,1.7328,1.7327,1.7322,1.7325,1.7332,1.7332,1.7334,1.7332,1.7337,1.7341,1.7331,1.733,1.7321,1.7327,1.735,1.7316,1.7315,1.7322,1.7369,1.7376,1.7381,1.7342,1.7343,1.7343,1.7369,0,1.7357,1.7369,1.736,1.7373,1.7377,1.7363,1.7369,1.7366,1.7361,1.7364,1.7357,1.736,1.7347,1.7346,1.7352,1.7346,1.7359,1.7344,1.7347,1.7347,1.7348,1.7385,1.7393,1.7417,1.7372,1.7373,1.7373,0,1.7386,1.7387,1.7401,1.7396,1.7397,1.7403,1.7403,1.7406,1.7403,1.7399,1.7398,1.7388,1.7395,1.738,1.7389,1.7379,1.738,1.7378,1.7378,1.7377,1.7361,1.7384,1.7425,1.7428,1.7378,1.7378,1.7377,0,1.7413,1.7417,1.7426,1.7426,1.742,1.7425,1.7423,1.7419,1.742,1.742,1.7421,1.7421,1.7421,1.7422,1.7413,1.7403,1.7423,1.7407,1.7419,1.7419,1.7423,1.7423,1.7463,1.7425,1.7425,1.7425,1.7425,0,1.744,1.745,1.7438,1.7444,1.7454,1.7444,1.7454,1.745,1.7447,1.7452,1.744,1.7444,1.7432,1.7435,1.7428,1.7436,1.7436,1.7433,1.7431,1.7434,1.7434,1.7433,1.7431,1.7426,1.7426,1.7425,1.7425,0,1.7471,1.7464,1.7473,1.7468,1.7467,1.7474,1.7469,1.7474,1.7469,1.7475,1.7476,1.7467,1.7471,1.7462,1.7463,1.7459,1.7471,1.7466,1.7472,1.7471,1.7483,1.7482,1.7524,1.7529,1.7488,1.7488,1.7489,0,1.7488,1.7495,1.7491,1.7494,1.7493,1.7497,1.7498,1.7489,1.7491,1.7489,1.7494,1.7497,1.7499,1.7505,1.7498,1.75,1.7495,1.751,1.7495,1.7498,1.7495,1.7494,1.7495,1.7512,1.7513,1.7513,1.7513,0,1.752,1.7517,1.752,1.7522,1.7525,1.7526,1.7526,1.7528,1.7518,1.7521,1.7525,1.7527,1.7529,1.7532,1.7533,1.753,1.752,1.7519,1.7521,1.7524,1.7527,1.7525,1.748,1.7517,1.7517,1.7516,1.7516,1.7516,1.7544,1.755,1.7549,1.7553,1.7552,1.7553,1.7558,1.7554,1.7557,1.7559,1.7553,1.7559,1.7557,1.7557,1.7555,1.7559,1.7552,1.7556,1.7557,1.7558,1.756,1.7527,1.7559,1.7559,1.7559,1.7559,1.7559,0,1.7575,1.7574,1.7578,1.7579,1.7583,1.7575,1.7575,1.7578,1.7583,1.7583,1.7585,1.759,1.7593,1.7588,1.759,1.7594,1.759,1.7595,1.7594,1.7594,1.7566,1.7563,1.7599,1.7599,1.7599,1.7599,1.7599,1.7599,1.7592,1.7601,1.7598,1.7608,1.7606,1.7612,1.7613,1.7614,1.7614,1.762,1.7623,1.762,1.7617,1.762,1.7622,1.7621,1.7622,1.7629,1.7626,1.76,1.7596,1.7592,1.7589,1.7629,1.7629,1.7653,1.7653,1.7653]},{"header":{"parameterUnit":"m.s-1","parameterCategory":1,"la1":30.2991,"la2":30.254,"lo1":-89.0895,"lo2":-89.0444,"dy":0.0017,"dx":0.0017,"nx":28,"ny":28,"refTime":"2026-01-10T03:00:00:Z","depth":0,"parameterNumber":3,"parameterNumberName":"V-component_of_WINDS"},"data":[0,0,0,0,0,0,0,0,0,0,0,0,0,0,0,0,0,0,0,0,0,0,0,0,0,0,0,0,0,0,0,0,0,0,0,0,0,0,0,0,0,0,0,0,0,0,0,0,0,0,0,0,0,0,0,0,0,0,-8.2376,-8.2378,0,-8.2553,-8.2555,-8.2557,-8.2493,-8.2489,-8.2485,-8.2481,-8.2655,-8.2664,-8.2672,0,0,0,0,0,0,0,0,0,0,0,0,0,-8.198,-8.1988,-8.2376,-8.2379,-8.2381,-8.2552,-8.2555,-8.2557,-8.2494,-8.2489,-8.2484,-8.2479,-8.2653,-8.2663,-8.2673,0,0,0,0,0,0,0,0,0,0,0,0,0,-8.2154,-8.199,-8.2376,-8.237,-8.2371,-8.2552,-8.2555,-8.2558,-8.2495,-8.2489,-8.2483,-8.2477,-8.2649,-8.2662,-8.2674,-8.2869,0,0,-8.2712,-8.2717,0,0,0,0,0,0,0,0,-8.2144,-8.2168,-8.2369,-8.2371,-8.2372,-8.2495,-8.2479,-8.2662,-8.2496,-8.2448,-8.2481,-8.2474,-8.2606,-8.2622,-8.2668,-8.2877,-8.2885,-8.2713,-8.2721,-8.2726,-8.273,0,0,0,0,0,0,0,-8.2132,-8.216,-8.2446,-8.2371,-8.2374,-8.2357,-8.2375,-8.2513,-8.2558,-8.2451,-8.2447,-8.2469,-8.2606,-8.2656,-8.2671,-8.2888,-8.2713,-8.2724,-8.2732,-8.2736,-8.3268,-8.3275,0,0,0,0,0,0,-8.212,-8.2151,-8.244,-8.2451,-8.2242,-8.2369,-8.2389,-8.2461,-8.2556,-8.2565,-8.2474,-8.2466,-8.2638,-8.2657,-8.2677,-8.2914,-8.2726,-8.2738,-8.2745,-8.3262,-8.327,-8.3277,0,0,0,0,0,0,-8.2112,-8.2146,-8.2433,-8.23,-8.2335,-8.2382,-8.2464,-8.2468,-8.2518,-8.2573,-8.258,-8.2517,-8.2634,-8.266,-8.2823,-8.2919,-8.2743,-8.2755,-8.3254,-8.3264,-8.3274,-8.3389,0,0,0,0,0,0,-8.2101,-8.2144,-8.2219,-8.2302,-8.2343,-8.2578,-8.247,-8.2476,-8.254,-8.2531,-8.2616,-8.2624,-8.2631,-8.2805,-8.2836,-8.2933,-8.2764,-8.3246,-8.3259,-8.327,-8.3376,-8.3401,-8.3423,0,0,0,0,0,-8.2087,-8.2243,-8.2224,-8.2259,-8.2439,-8.2583,-8.2606,-8.2613,-8.2548,-8.2624,-8.266,-8.2621,-8.2904,-8.2822,-8.2856,-8.2959,-8.324,-8.3255,-8.3269,-8.3366,-8.3396,-8.3422,0,0,0,0,0,0,-8.2167,-8.2253,-8.2233,-8.2421,-8.2496,-8.2572,-8.2668,-8.2644,-8.2737,-8.2724,-8.2727,-8.2746,-8.2915,-8.2953,-8.286,-8.3154,-8.3062,-8.3084,-8.3124,-8.3153,-8.3176,-8.3163,-8.2775,0,0,0,0,0,-8.2207,-8.2319,-8.2388,-8.2547,-8.2586,-8.2621,-8.2684,-8.2684,-8.276,-8.279,-8.2838,-8.2912,-8.3018,-8.3087,-8.3187,-8.3381,-8.3399,-8.3469,-8.3492,-8.3511,-8.353,-8.3638,-8.367,-8.3326,-8.3326,-8.3326,0,0,-8.229,-8.2351,-8.2421,-8.2565,-8.2623,-8.2738,-8.2648,-8.2772,-8.2858,-8.2808,-8.2967,-8.3005,-8.3088,-8.3268,-8.335,-8.3305,-8.363,-8.353,-8.3544,-8.3554,-8.3656,-8.3689,-8.3718,-8.3336,-8.3335,-8.3333,0,0,-8.2501,-8.2558,-8.2698,-8.2759,-8.2849,-8.2871,-8.2905,-8.2987,-8.3011,-8.317,-8.3137,-8.3237,-8.3418,-8.348,-8.3534,-8.3772,-8.3739,-8.3804,-8.3924,-8.4029,-8.4056,-8.408,-8.4166,-8.4197,-8.3823,-8.3823,-8.3823,0,-8.2592,-8.2766,-8.2773,-8.2902,-8.2967,-8.293,-8.3072,-8.313,-8.3247,-8.3291,-8.324,-8.3469,-8.3522,-8.3717,-8.3776,-8.3821,-8.3859,-8.3794,-8.4052,-8.4076,-8.4099,-8.4181,-8.4213,-8.383,-8.383,-8.3829,-8.3828,0,-8.2875,-8.2996,-8.3098,-8.3216,-8.3292,-8.3426,-8.3452,-8.3528,-8.3521,-8.3549,-8.3713,-8.3775,-8.3889,-8.3935,-8.3928,-8.413,-8.41,-8.405,-8.3957,-8.4139,-8.4216,-8.4247,-8.3841,-8.3838,-8.3836,-8.3834,0,0,-8.314,-8.3262,-8.3299,-8.3353,-8.3451,-8.3544,-8.3677,-8.3791,-8.3856,-8.3938,-8.405,-8.4206,-8.4162,-8.4224,-8.4224,-8.4316,-8.4502,-8.4255,-8.4257,-8.43,-8.473,-8.4768,-8.4804,-8.4481,-8.4487,-8.4492,-8.4724,0,-8.3359,-8.3596,-8.3607,-8.3822,-8.3935,-8.3903,-8.4019,-8.4091,-8.4121,-8.422,-8.4252,-8.4364,-8.4296,-8.4334,-8.4423,-8.446,-8.4588,-8.4444,-8.4585,-8.459,-8.4567,-8.4844,-8.4884,-8.5099,-8.4754,-8.4759,-8.4763,0,-8.3647,-8.3742,-8.3969,-8.4054,-8.4101,-8.4206,-8.4312,-8.4407,-8.4488,-8.4503,-8.4575,-8.4562,-8.4698,-8.4601,-8.4788,-8.4689,-8.4748,-8.4775,-8.4783,-8.4797,-8.4688,-8.4867,-8.5168,-8.5201,-8.481,-8.4806,-8.4803,0,-8.382,-8.4004,-8.4165,-8.4211,-8.4313,-8.4388,-8.4433,-8.4508,-8.4577,-8.4669,-8.4713,-8.4819,-8.4877,-8.4959,-8.4974,-8.4902,-8.5163,-8.5066,-8.5179,-8.5179,-8.5235,-8.5232,-8.5552,-8.5272,-8.5271,-8.527,-8.527,0,-8.4065,-8.4205,-8.4244,-8.4343,-8.45,-8.451,-8.4665,-8.4704,-8.4772,-8.4878,-8.4855,-8.4954,-8.4969,-8.5071,-8.5084,-8.5238,-8.5263,-8.5279,-8.5281,-8.5282,-8.5281,-8.5321,-8.5307,-8.5279,-8.5277,-8.5276,-8.5274,0,-8.4284,-8.4316,-8.4489,-8.4572,-8.4596,-8.4709,-8.4779,-8.4873,-8.4902,-8.5035,-8.5067,-8.5111,-8.5231,-8.5255,-8.5395,-8.5404,-8.5588,-8.5574,-8.5562,-8.5561,-8.5673,-8.5663,-8.6031,-8.608,-8.5766,-8.5769,-8.5772,0,-8.4439,-8.4547,-8.4643,-8.4713,-8.4763,-8.4876,-8.4947,-8.4962,-8.5036,-8.5138,-8.5221,-8.5338,-8.5433,-8.5626,-8.5669,-8.5777,-8.5766,-8.5888,-8.5782,-8.578,-8.577,-8.5764,-8.5775,-8.5908,-8.5911,-8.5914,-8.5916,0,-8.471,-8.4722,-8.4826,-8.4937,-8.5023,-8.511,-8.5192,-8.5251,-8.5277,-8.5361,-8.5485,-8.5559,-8.5705,-8.5822,-8.593,-8.5975,-8.5951,-8.595,-8.5982,-8.5984,-8.5973,-8.5982,-8.5618,-8.5941,-8.5938,-8.5937,-8.5935,-8.5934,-8.4903,-8.4999,-8.5083,-8.52,-8.5264,-8.5343,-8.5437,-8.5479,-8.5583,-8.5704,-8.5706,-8.5842,-8.5921,-8.6064,-8.6116,-8.6221,-8.6183,-8.6229,-8.6241,-8.6252,-8.6264,-8.5956,-8.6241,-8.624,-8.6239,-8.6239,-8.6238,0,-8.5175,-8.5228,-8.5336,-8.5455,-8.5547,-8.5519,-8.561,-8.5689,-8.5809,-8.5886,-8.5982,-8.6124,-8.6239,-8.6292,-8.6405,-8.6479,-8.6471,-8.6508,-8.6503,-8.6514,-8.6291,-8.6253,-8.6513,-8.6513,-8.6513,-8.6513,-8.6513,-8.6513,-8.5328,-8.5489,-8.551,-8.5703,-8.5754,-8.5889,-8.5944,-8.6016,-8.6079,-8.624,-8.6336,-8.6372,-8.644,-8.6558,-8.6661,-8.6674,-8.6717,-8.676,-8.6767,-8.6558,-8.653,-8.6503,-8.6467,-8.6769,-8.6769,-8.6982,-8.6984,-8.6986]}]]